Simultaneous Nadir Overpasses (SNOs) Predictions

Prediction of SNOs between GOES-16 and LANDSAT-8 Satellite Orbit:

Table of predicted SNOs for the next 14.0 days since TLE Epoch: 10/9/2020
Index Date Time (GOES-16) GOES-16 Lat,Lon LANDSAT-8 Lat,Lon Distance(km) Time Diff (sec)
1 10/10/2020 03:30:54 0.02, -75.23 -0.83, -79.11 441.99 80
2 10/11/2020 14:54:39 -0.02, -75.27 -0.92, -70.97 489.46 80
3 10/12/2020 03:18:43 0.02, -75.25 -0.19, -76.16 103.38 80
4 10/14/2020 03:03:52 0.02, -75.28 0.45, -73.20 235.80 80
5 10/14/2020 15:27:48 -0.02, -75.31 0.62, -78.36 346.40 80
6 10/16/2020 15:15:37 -0.02, -75.35 -0.02, -75.41 6.60 80
7 10/18/2020 15:00:46 -0.02, -75.38 -0.67, -72.45 333.78 80
8 10/19/2020 03:24:49 0.02, -75.37 -0.45, -77.64 258.53 80
9 10/21/2020 03:09:58 0.02, -75.40 0.15, -74.68 82.24 80
10 10/21/2020 15:33:53 -0.01, -75.44 0.93, -79.84 499.77 80
11 10/23/2020 02:57:47 0.01, -75.45 0.80, -71.72 423.45 80
12 10/23/2020 15:21:42 -0.01, -75.49 0.28, -76.88 158.36 80
